Ada, OK

7:26 AM CDT on May 28, 2017 (GMT -0500)
Ada Municipal

Weather History for KADH - January, 2014

Change the Weather History Date:

Saturday, January 4, 2014

  Actual Average Record
Temperature  
Mean Temperature 46 °F -  
Max Temperature 59 °F 49 °F 79 °F (1911)
Min Temperature 32 °F 25 °F -6 °F (1947)
Degree Days  
Heating Degree Days 20    
Moisture  
Dew Point 36 °F    
Average Humidity 75    
Maximum Humidity 93    
Minimum Humidity 55    
Precipitation  
Precipitation 0.00 in - - ()
Sea Level Pressure  
Sea Level Pressure 29.80 in    
Wind  
Wind Speed 12 mph (South)    
Max Wind Speed 20 mph    
Max Gust Speed 29 mph    
Visibility 10 miles    
Events      
Averages and records for this station are not official NWS values.
T = Trace of Precipitation, MM = Missing Value Source: NWS Daily Summary

Daily Weather History Graph

Daily Weather History Graph

Search for Another Location

Airport or City:

Trip Planner

Search our weather history database for the weather conditions in past years. The results will help you decide how hot, cold, wet, or windy it might be!

Date:

Astronomy

Jan. 04, 2014 Rise Set
Actual Time 7:34 AM CST 5:29 PM CST
Civil Twilight 7:06 AM CST 5:56 PM CST
Nautical Twilight 6:35 AM CST 6:28 PM CST
Astronomical Twilight 6:04 AM CST 6:58 PM CST
Moon 9:50 AM CST (1/4) 9:39 PM CST (1/4)
Length of Visible Light 10h 50m
Length of Day
9h 54m
Waxing Crescent, 15% of the Moon is Illuminated
Jan 4
Waxing Crescent
Jan 7
First Quarter
Jan 15
Full
Jan 23
Last Quarter
Jan 30
New

Hourly Weather History & Observations

Time (CST) Temp. Windchill Dew Point Humidity Pressure Visibility Wind Dir Wind Speed Gust Speed Precip Events Conditions
12:10 AM 35.6 °F 28.0 °F 26.6 °F 70% 29.94 in 10.0 mi SSE 10.4 mph - N/A   Clear
12:35 AM 35.6 °F 28.0 °F 26.6 °F 70% 29.94 in 10.0 mi SSE 10.4 mph - N/A   Clear
12:55 AM 33.8 °F 26.4 °F 26.6 °F 75% 29.93 in 10.0 mi SSE 9.2 mph - N/A   Clear
1:15 AM 33.8 °F 25.8 °F 26.6 °F 75% 29.92 in 10.0 mi SSE 10.4 mph - N/A   Clear
1:35 AM 33.8 °F 26.4 °F 26.6 °F 75% 29.90 in 10.0 mi SE 9.2 mph - N/A   Clear
1:55 AM 32.0 °F 24.8 °F 26.6 °F 80% 29.90 in 10.0 mi SE 8.1 mph - N/A   Clear
2:15 AM 32.0 °F 24.2 °F 26.6 °F 80% 29.90 in 10.0 mi SE 9.2 mph - N/A   Clear
2:35 AM 33.8 °F 25.3 °F 26.6 °F 75% 29.89 in 10.0 mi SSE 11.5 mph 17.3 mph N/A   Clear
2:55 AM 33.8 °F 25.8 °F 26.6 °F 75% 29.89 in 10.0 mi SSE 10.4 mph - N/A   Clear
3:15 AM 33.8 °F 25.3 °F 26.6 °F 75% 29.88 in 10.0 mi SSE 11.5 mph - N/A   Clear
3:35 AM 33.8 °F 26.4 °F 26.6 °F 75% 29.88 in 10.0 mi SSE 9.2 mph - N/A   Clear
3:55 AM 33.8 °F 26.4 °F 28.4 °F 81% 29.87 in 10.0 mi SSE 9.2 mph - N/A   Clear
4:15 AM 35.6 °F 27.1 °F 30.2 °F 81% 29.87 in 10.0 mi South 12.7 mph 19.6 mph N/A   Clear
4:35 AM 35.6 °F 25.9 °F 30.2 °F 81% 29.85 in 10.0 mi South 16.1 mph 24.2 mph N/A   Clear
4:55 AM 37.4 °F 28.2 °F 32.0 °F 81% 29.84 in 10.0 mi South 16.1 mph - N/A   Clear
5:15 AM 37.4 °F 27.8 °F 32.0 °F 81% 29.84 in 10.0 mi South 17.3 mph 25.3 mph N/A   Clear
5:35 AM 37.4 °F 28.2 °F 33.8 °F 87% 29.84 in 10.0 mi South 16.1 mph 23.0 mph N/A   Clear
5:55 AM 37.4 °F 28.9 °F 33.8 °F 87% 29.84 in 10.0 mi South 13.8 mph 21.9 mph N/A   Clear
6:15 AM 37.4 °F 30.8 °F 33.8 °F 87% 29.84 in 10.0 mi South 9.2 mph 16.1 mph N/A   Clear
6:35 AM 37.4 °F 30.3 °F 33.8 °F 87% 29.83 in 10.0 mi South 10.4 mph 20.7 mph N/A   Clear
6:55 AM 37.4 °F 29.3 °F 35.6 °F 93% 29.82 in 10.0 mi SSE 12.7 mph 20.7 mph N/A   Scattered Clouds
7:15 AM 37.4 °F 28.9 °F 35.6 °F 93% 29.82 in 10.0 mi SSE 13.8 mph 19.6 mph N/A   Scattered Clouds
7:35 AM 37.4 °F 29.8 °F 35.6 °F 93% 29.82 in 10.0 mi South 11.5 mph 16.1 mph N/A   Mostly Cloudy
7:55 AM 39.2 °F 30.5 °F 35.6 °F 87% 29.81 in 10.0 mi SSE 16.1 mph 24.2 mph N/A   Mostly Cloudy
8:15 AM 39.2 °F 31.2 °F 37.4 °F 93% 29.82 in 10.0 mi South 13.8 mph 21.9 mph N/A   Mostly Cloudy
8:35 AM 41.0 °F 33.1 °F 37.4 °F 87% 29.83 in 10.0 mi South 15.0 mph 19.6 mph N/A   Mostly Cloudy
8:55 AM 41.0 °F 32.8 °F 37.4 °F 87% 29.82 in 10.0 mi South 16.1 mph 24.2 mph N/A   Mostly Cloudy
9:15 AM 42.8 °F 35.8 °F 39.2 °F 87% 29.82 in 10.0 mi South 13.8 mph 20.7 mph N/A   Mostly Cloudy
9:35 AM 42.8 °F 34.3 °F 39.2 °F 87% 29.82 in 10.0 mi South 19.6 mph 26.5 mph N/A   Mostly Cloudy
9:55 AM 44.6 °F 37.2 °F 39.2 °F 81% 29.81 in 10.0 mi South 17.3 mph 28.8 mph N/A   Scattered Clouds
10:15 AM 44.6 °F 36.9 °F 41.0 °F 87% 29.82 in 10.0 mi South 18.4 mph 26.5 mph N/A   Scattered Clouds
10:35 AM 46.4 °F 39.2 °F 41.0 °F 81% 29.81 in 10.0 mi South 18.4 mph 27.6 mph N/A   Scattered Clouds
10:55 AM 46.4 °F 39.5 °F 41.0 °F 81% 29.81 in 10.0 mi South 17.3 mph 25.3 mph N/A   Scattered Clouds
11:15 AM 50.0 °F - 41.0 °F 71% 29.79 in 10.0 mi SSW 13.8 mph 25.3 mph N/A   Scattered Clouds
11:35 AM 51.8 °F - 41.0 °F 67% 29.78 in 10.0 mi South 16.1 mph 26.5 mph N/A   Scattered Clouds
11:55 AM 51.8 °F - 41.0 °F 67% 29.76 in 10.0 mi South 16.1 mph 23.0 mph N/A   Clear
12:15 PM 53.6 °F - 41.0 °F 62% 29.75 in 10.0 mi SSW 12.7 mph 25.3 mph N/A   Clear
12:35 PM 53.6 °F - 42.8 °F 67% 29.74 in 10.0 mi SW 17.3 mph 21.9 mph N/A   Scattered Clouds
12:55 PM 53.6 °F - 41.0 °F 62% 29.73 in 10.0 mi SSW 15.0 mph 21.9 mph N/A   Scattered Clouds
1:15 PM 55.4 °F - 41.0 °F 58% 29.71 in 10.0 mi SSW 18.4 mph 23.0 mph N/A   Clear
1:35 PM 55.4 °F - 42.8 °F 63% 29.71 in 10.0 mi SSW 15.0 mph 20.7 mph N/A   Clear
1:55 PM 57.2 °F - 42.8 °F 59% 29.71 in 10.0 mi SSW 16.1 mph 23.0 mph N/A   Clear
2:15 PM 59.0 °F - 42.8 °F 55% 29.71 in 10.0 mi SSW 11.5 mph - N/A   Clear
2:35 PM 59.0 °F - 42.8 °F 55% 29.71 in 10.0 mi SSW 10.4 mph - N/A   Clear
2:55 PM 59.0 °F - 42.8 °F 55% 29.71 in 10.0 mi SW 12.7 mph 20.7 mph N/A   Clear
3:15 PM 59.0 °F - 42.8 °F 55% 29.72 in 10.0 mi SSW 11.5 mph 17.3 mph N/A   Clear
3:35 PM 59.0 °F - 44.6 °F 59% 29.71 in 10.0 mi SSW 8.1 mph - N/A   Clear
3:55 PM 59.0 °F - 44.6 °F 59% 29.71 in 10.0 mi South 12.7 mph - N/A   Clear
4:15 PM 59.0 °F - 44.6 °F 59% 29.72 in 10.0 mi SSE 13.8 mph 17.3 mph N/A   Clear
4:35 PM 59.0 °F - 44.6 °F 59% 29.72 in 10.0 mi SSE 12.7 mph - N/A   Clear
4:55 PM 57.2 °F - 44.6 °F 63% 29.72 in 10.0 mi South 10.4 mph - N/A   Clear
5:15 PM 55.4 °F - 44.6 °F 67% 29.73 in 10.0 mi South 6.9 mph - N/A   Clear
5:35 PM 53.6 °F - 44.6 °F 72% 29.73 in 10.0 mi South 5.8 mph - N/A   Scattered Clouds
5:55 PM 51.8 °F - 44.6 °F 76% 29.74 in 10.0 mi SSW 3.5 mph - N/A   Clear
6:15 PM 51.8 °F - 44.6 °F 76% 29.74 in 10.0 mi Calm Calm - N/A   Scattered Clouds
6:35 PM 53.6 °F - 44.6 °F 72% 29.75 in 10.0 mi Calm Calm - N/A   Scattered Clouds
6:55 PM 51.8 °F - 44.6 °F 76% 29.77 in 10.0 mi WNW 4.6 mph - N/A   Mostly Cloudy
7:15 PM 51.8 °F - 39.2 °F 62% 29.77 in 10.0 mi NW 6.9 mph 18.4 mph N/A   Scattered Clouds
7:35 PM 48.2 °F - 35.6 °F 62% 29.78 in 10.0 mi NW 9.2 mph - N/A   Clear
7:55 PM 46.4 °F 41.5 °F 33.8 °F 62% 29.78 in 10.0 mi NNW 10.4 mph - N/A   Clear
8:15 PM 46.4 °F 42.4 °F 33.8 °F 62% 29.79 in 10.0 mi NNW 8.1 mph 16.1 mph N/A   Clear
8:35 PM 44.6 °F 37.8 °F 32.0 °F 61% 29.79 in 10.0 mi NNW 15.0 mph 21.9 mph N/A   Clear
8:55 PM 39.2 °F 32.0 °F 32.0 °F 75% 29.80 in 10.0 mi NNW 11.5 mph 21.9 mph N/A   Clear
9:15 PM 35.6 °F 29.2 °F 30.2 °F 81% 29.80 in 10.0 mi NNW 8.1 mph 20.7 mph N/A   Clear
9:35 PM 35.6 °F 27.5 °F 32.0 °F 87% 29.82 in 10.0 mi NNW 11.5 mph 21.9 mph N/A   Clear
9:55 PM 33.8 °F 25.8 °F 30.2 °F 87% 29.82 in 10.0 mi North 10.4 mph 17.3 mph N/A   Clear
10:15 PM 33.8 °F 25.3 °F 30.2 °F 87% 29.82 in 10.0 mi NNW 11.5 mph 17.3 mph N/A   Clear
10:35 PM 33.8 °F 26.4 °F 32.0 °F 93% 29.82 in 10.0 mi North 9.2 mph 17.3 mph N/A   Clear
10:55 PM 33.8 °F 25.8 °F 32.0 °F 93% 29.81 in 10.0 mi North 10.4 mph 18.4 mph N/A   Clear
11:15 PM 35.6 °F 27.1 °F 32.0 °F 87% 29.80 in 10.0 mi North 12.7 mph 21.9 mph N/A   Mostly Cloudy
11:35 PM 35.6 °F 26.2 °F 32.0 °F 87% 29.82 in 10.0 mi NNW 15.0 mph 23.0 mph N/A   Overcast
11:55 PM 33.8 °F 22.8 °F 30.2 °F 87% 29.84 in 10.0 mi NNW 18.4 mph 26.5 mph N/A   Overcast